Grand Marais, MN

4:02 PM CDT on August 22, 2017 (GMT -0500)
Grand Marais

Weather History for KGNA - May, 2014

Change the Weather History Date:

Monday, May 12, 2014

  Actual Average (KCKC) Record (KCKC)
Temperature  
Mean Temperature 49 °F -  
Max Temperature 57 °F 55 °F 69 °F (2004)
Min Temperature 41 °F 35 °F 21 °F (2005)
Degree Days  
Heating Degree Days 16    
Moisture  
Dew Point 37 °F    
Average Humidity 79    
Maximum Humidity 93    
Minimum Humidity 40    
Precipitation  
Precipitation 0.14 in - - ()
Sea Level Pressure  
Sea Level Pressure 29.94 in    
Wind  
Wind Speed 19 mph (ENE)    
Max Wind Speed 28 mph    
Max Gust Speed 41 mph    
Averages and records for this station are not official NWS values.
T = Trace of Precipitation, MM = Missing Value Source: NWS Daily Summary

Daily Weather History Graph

Daily Weather History Graph

Search for Another Location

Airport or City:

Trip Planner

Search our weather history database for the weather conditions in past years. The results will help you decide how hot, cold, wet, or windy it might be!

Date:

Astronomy

May. 12, 2014 Rise Set
Actual Time 5:27 AM CDT 8:28 PM CDT
Civil Twilight 4:51 AM CDT 9:05 PM CDT
Nautical Twilight 4:04 AM CDT 9:52 PM CDT
Astronomical Twilight 3:07 AM CDT 10:50 PM CDT
Moon 6:17 PM CDT (5/12) 4:18 AM CDT (5/12)
Length of Visible Light 16h 14m
Length of Day
15h 01m
Waxing Gibbous, 95% of the Moon is Illuminated
May 12
Waxing Gibbous
May 14
Full
May 21
Last Quarter
May 28
New
Jun 5
First Quarter

Hourly Weather History & Observations

Time (CDT) Temp. Windchill Dew Point Humidity Pressure Visibility Wind Dir Wind Speed Gust Speed Precip Events Conditions
12:56 AM 57.0 °F - 33.1 °F 40% 29.98 in - ENE 17.3 mph 24.2 mph N/A   Unknown
1:56 AM 46.9 °F - 34.0 °F 61% 29.99 in - ENE 12.7 mph - N/A   Unknown
2:56 AM 45.0 °F 37.9 °F 33.1 °F 63% 30.01 in - ENE 16.1 mph 23.0 mph N/A   Unknown
3:56 AM 46.9 °F - 36.0 °F 66% 30.01 in - ENE 18.4 mph 28.8 mph N/A   Unknown
4:56 AM 48.0 °F - 36.0 °F 63% 29.99 in - ENE 19.6 mph 29.9 mph N/A   Unknown
5:56 AM 46.9 °F - 37.9 °F 71% 30.00 in - NE 17.3 mph 27.6 mph N/A   Unknown
6:56 AM 45.0 °F 36.4 °F 37.9 °F 76% 29.99 in - ENE 23.0 mph 33.4 mph 0.02 in   Unknown
7:56 AM 44.1 °F 35.4 °F 37.0 °F 76% 29.98 in - ENE 21.9 mph 34.5 mph 0.01 in   Unknown
9:56 AM 44.1 °F 36.2 °F 36.0 °F 73% 29.97 in - ENE 18.4 mph 29.9 mph N/A   Unknown
10:56 AM 43.0 °F 34.8 °F 37.9 °F 82% 29.97 in - ENE 18.4 mph 26.5 mph 0.01 in   Unknown
11:56 AM 42.1 °F 33.6 °F 39.0 °F 89% 29.98 in - ENE 18.4 mph - 0.08 in   Unknown
12:56 PM 42.1 °F 32.6 °F 37.9 °F 85% 29.97 in - ENE 23.0 mph 35.7 mph 0.02 in   Unknown
1:56 PM 42.1 °F 32.6 °F 37.0 °F 82% 29.95 in - ENE 23.0 mph 33.4 mph N/A   Unknown
2:56 PM 43.0 °F 34.2 °F 37.9 °F 82% 29.92 in - ENE 20.7 mph 31.1 mph N/A   Unknown
3:56 PM 44.1 °F 35.4 °F 39.0 °F 82% 29.91 in - ENE 21.9 mph 41.4 mph N/A   Unknown
4:56 PM 42.1 °F 32.1 °F 37.9 °F 85% 29.94 in - ENE 25.3 mph 39.1 mph N/A   Unknown
5:56 PM 42.1 °F 33.9 °F 39.0 °F 89% 29.95 in - ENE 17.3 mph 32.2 mph N/A   Unknown
6:56 PM 41.0 °F 31.4 °F 37.9 °F 89% 29.92 in - ENE 21.9 mph 32.2 mph N/A   Unknown
7:56 PM 42.1 °F 32.3 °F 39.0 °F 89% 29.88 in - ENE 24.2 mph 34.5 mph N/A   Unknown
8:56 PM 41.0 °F 31.4 °F 37.9 °F 89% 29.87 in - ENE 21.9 mph 36.8 mph N/A   Unknown
9:56 PM 41.0 °F 30.2 °F 39.0 °F 93% 29.82 in - ENE 27.6 mph 39.1 mph N/A   Unknown
10:56 PM 41.0 °F 31.4 °F 39.0 °F 93% 29.80 in - ENE 21.9 mph 35.7 mph N/A   Unknown
11:56 PM 41.0 °F 32.2 °F 39.0 °F 93% 29.76 in - ENE 18.4 mph 31.1 mph N/A   Unknown